FW6618 Weather Reports


Display with metric or nautical units.
time (UTC)temp
F
wind
direction
speed
MPH
gust
MPH
rain 1hr
in
rain 24hr
in
rain mn
in
humidity
%
barometer
mb
20260902222519 66 0 0.0 0.0 0.00 0.00 0.00 92 1020.9
20260902222018 66 0 0.0 0.0 0.00 0.00 0.00 91 1020.9
20260902221541 66 0 0.0 0.0 0.00 0.00 0.00 92 1021.0
20260902221019 66 0 0.0 0.0 0.00 0.00 0.00 92 1021.3
20260902220517 66 0 0.0 1.0 0.00 0.00 0.00 92 1021.2
20260902220054 66 0 0.0 1.0 0.00 0.00 0.00 92 1021.2
20260902215520 66 0 0.0 1.0 0.00 0.00 0.00 92 1021.2
20260902215021 66 0 0.0 1.0 0.00 0.00 0.00 92 1021.2
20260902214558 66 92 0.0 3.0 0.00 0.00 0.00 91 1021.2
20260902214018 66 0 0.0 3.0 0.00 0.00 0.00 91 1021.4
20260902213519 66 335 0.0 3.0 0.00 0.00 0.00 90 1021.5
20260902213044 66 20 0.0 2.0 0.00 0.00 0.00 90 1021.5
20260902212523 67 39 0.0 2.0 0.00 0.00 0.00 90 1021.6
20260902212025 67 39 1.0 4.0 0.00 0.00 0.00 90 1021.6
20260902211543 67 41 0.0 4.0 0.00 0.00 0.00 86 1021.4
20260902211023 68 38 1.0 4.0 0.00 0.00 0.00 84 1021.1
20260902210524 68 0 0.0 2.0 0.00 0.00 0.00 85 1021.3
20260902210042 67 71 0.0 1.0 0.00 0.00 0.00 87 1021.2
20260902205522 67 0 0.0 3.0 0.00 0.00 0.00 89 1021.4
20260902205025 67 0 0.0 3.0 0.00 0.00 0.00 89 1021.3
20260902204541 67 347 1.0 3.0 0.00 0.00 0.00 86 1021.2
20260902204023 67 0 0.0 2.0 0.00 0.00 0.00 89 1021.3
20260902203523 67 326 1.0 1.0 0.00 0.00 0.00 89 1021.1
20260902203046 67 322 0.0 2.0 0.00 0.00 0.00 88 1021.2
20260902202523 67 322 1.0 3.0 0.00 0.00 0.00 88 1021.4
20260902202024 67 320 0.0 3.0 0.00 0.00 0.00 84 1021.4
20260902201546 67 226 1.0 3.0 0.00 0.00 0.00 84 1021.5
20260902201023 67 282 0.0 3.0 0.00 0.00 0.00 85 1021.4
20260902200521 67 271 1.0 3.0 0.00 0.00 0.00 84 1021.3
20260902200040 67 245 1.0 3.0 0.00 0.00 0.00 87 1021.3
20260902195524 67 22 1.0 3.0 0.00 0.00 0.00 86 1021.3
20260902195022 67 34 0.0 3.0 0.00 0.00 0.00 86 1021.5
20260902194543 68 245 1.0 3.0 0.00 0.00 0.00 85 1021.4
20260902194021 68 342 0.0 2.0 0.00 0.00 0.00 84 1021.5
20260902193523 68 333 1.0 3.0 0.00 0.00 0.00 84 1021.5
20260902193043 68 299 0.0 3.0 0.00 0.00 0.00 84 1021.7
20260902192519 68 0 0.0 3.0 0.00 0.00 0.00 86 1021.7
20260902192024 68 176 1.0 3.0 0.00 0.00 0.00 85 1021.7
20260902191546 67 312 0.0 1.0 0.00 0.00 0.00 85 1021.6
20260902191023 68 0 0.0 0.0 0.00 0.00 0.00 88 1021.7
20260902190526 68 0 0.0 0.0 0.00 0.00 0.00 86 1021.8
20260902190046 68 0 0.0 0.0 0.00 0.00 0.00 86 1021.8
20260902185521 69 0 0.0 1.0 0.00 0.00 0.00 84 1022.0
20260902185026 69 0 0.0 1.0 0.00 0.00 0.00 79 1022.1
20260902184545 70 265 0.0 3.0 0.00 0.00 0.00 78 1022.1
20260902184026 70 244 0.0 3.0 0.00 0.00 0.00 79 1022.0
20260902183528 71 237 1.0 3.0 0.00 0.00 0.00 77 1021.8
20260902183047 71 263 1.0 2.0 0.00 0.00 0.00 82 1021.8
20260902182521 71 319 0.0 1.0 0.00 0.00 0.00 83 1021.8
20260902182026 71 0 0.0 0.0 0.00 0.00 0.00 81 1021.6
20260902181541 70 0 0.0 0.0 0.00 0.00 0.00 84 1021.6
20260902181021 69 0 0.0 0.0 0.00 0.00 0.00 84 1021.8
20260902180523 70 0 0.0 0.0 0.00 0.00 0.00 84 1021.9
20260902180040 70 0 0.0 0.0 0.00 0.00 0.00 85 1021.9
20260902175524 69 0 0.0 0.0 0.00 0.01 0.00 81 1022.0
20260902175021 69 0 0.0 0.0 0.00 0.01 0.00 81 1021.8
20260902174551 69 0 0.0 0.0 0.00 0.01 0.00 83 1021.9
20260902174024 69 0 0.0 0.0 0.00 0.01 0.00 85 1021.9
20260902173524 68 0 0.0 0.0 0.00 0.01 0.00 87 1021.9
20260902173107 68 0 0.0 0.0 0.00 0.01 0.00 86 1021.9
20260902172521 68 0 0.0 0.0 0.00 0.01 0.00 86 1022.0
20260902172028 68 0 0.0 1.0 0.00 0.01 0.00 86 1022.0
20260902171547 68 0 0.0 1.0 0.00 0.01 0.00 87 1022.0
20260902171027 68 322 0.0 3.0 0.00 0.01 0.00 85 1022.0
20260902170520 68 79 0.0 3.0 0.00 0.01 0.00 84 1022.1
20260902170041 68 0 0.0 1.0 0.00 0.01 0.00 87 1022.2
20260902165527 68 89 0.0 1.0 0.00 0.07 0.00 88 1022.2
20260902165028 68 0 0.0 3.0 0.00 0.07 0.00 85 1022.0
20260902164540 68 95 1.0 3.0 0.00 0.07 0.00 85 1022.0
20260902164024 68 225 1.0 3.0 0.00 0.07 0.00 83 1022.0
20260902163523 68 328 0.0 2.0 0.00 0.07 0.00 88 1022.1
20260902163042 68 0 0.0 0.0 0.00 0.07 0.00 87 1022.2
20260902162524 69 0 0.0 0.0 0.00 0.07 0.00 86 1022.2
20260902162024 69 0 0.0 1.0 0.00 0.07 0.00 85 1022.2
20260902161541 69 0 0.0 1.0 0.00 0.07 0.00 83 1022.3
20260902161021 70 227 0.0 1.0 0.00 0.07 0.00 83 1022.1
20260902160527 69 227 0.0 2.0 0.00 0.07 0.00 81 1022.2
20260902160059 69 193 0.0 2.0 0.00 0.07 0.00 81 1022.4
20260902155528 69 224 0.0 2.0 0.00 0.12 0.00 79 1022.3
20260902155025 69 0 0.0 2.0 0.00 0.12 0.00 83 1022.4
20260902154547 69 271 1.0 2.0 0.00 0.12 0.00 81 1022.4
20260902154027 69 0 1.0 3.0 0.00 0.12 0.00 84 1022.5
20260902153525 69 0 1.0 3.0 0.00 0.12 0.00 80 1022.7
20260902153044 69 0 0.0 2.0 0.00 0.12 0.00 82 1022.6
20260902152520 68 274 1.0 2.0 0.00 0.12 0.00 81 1022.8
20260902152019 68 0 0.0 2.0 0.00 0.12 0.00 88 1022.9
20260902151540 67 311 0.0 2.0 0.00 0.12 0.00 86 1022.9
20260902151019 67 309 0.0 2.0 0.00 0.12 0.00 81 1022.9
20260902150524 67 0 0.0 1.0 0.00 0.12 0.00 83 1023.0
20260902150045 66 0 0.0 3.0 0.00 0.12 0.00 83 1023.1
20260902145524 66 0 1.0 3.0 0.00 0.17 0.00 83 1023.1
20260902145031 66 0 0.0 0.0 0.00 0.17 0.00 84 1023.3
20260902144543 66 0 0.0 0.0 0.00 0.17 0.00 86 1023.3
20260902144021 65 0 0.0 0.0 0.00 0.17 0.00 85 1023.3
20260902143521 65 0 0.0 0.0 0.00 0.17 0.00 89 1023.2
20260902143040 65 0 0.0 0.0 0.00 0.17 0.00 87 1023.4
20260902142525 65 0 0.0 0.0 0.00 0.17 0.00 86 1023.3
20260902142018 65 0 0.0 0.0 0.00 0.17 0.00 86 1023.2
20260902141551 64 0 0.0 0.0 0.00 0.17 0.00 89 1023.2
20260902141024 65 0 0.0 0.0 0.00 0.17 0.00 89 1023.3
20260902140523 65 0 0.0 3.0 0.00 0.17 0.00 89 1023.2
20260902140045 65 0 0.0 3.0 0.00 0.17 0.00 89 1023.1
20260902135525 65 0 0.0 3.0 0.00 0.17 0.00 86 1023.0
20260902135021 65 276 0.0 8.0 0.00 0.17 0.00 88 1022.9
20260902134542 65 268 1.0 8.0 0.00 0.17 0.00 85 1022.8
20260902134023 65 0 0.0 0.0 0.00 0.17 0.00 92 1022.8
20260902133524 65 0 0.0 0.0 0.00 0.17 0.00 92 1022.8
20260902133050 65 0 0.0 0.0 0.00 0.17 0.00 89 1022.7
20260902132525 65 0 0.0 0.0 0.00 0.17 0.00 93 1022.5
20260902132020 65 0 0.0 0.0 0.00 0.17 0.00 91 1022.4
20260902131549 65 0 0.0 0.0 0.00 0.17 0.00 92 1022.3
20260902131025 65 0 0.0 0.0 0.00 0.17 0.00 91 1022.2
20260902130521 65 0 0.0 0.0 0.00 0.17 0.00 92 1022.2
20260902130049 64 0 0.0 0.0 0.00 0.17 0.00 91 1022.2
20260902125526 64 0 0.0 0.0 0.00 0.17 0.00 91 1022.5
20260902125021 64 0 0.0 0.0 0.00 0.17 0.00 92 1022.3
20260902124553 64 0 0.0 0.0 0.00 0.17 0.00 93 1022.4
20260902124028 64 0 0.0 0.0 0.00 0.17 0.00 93 1022.5
20260902123524 64 0 0.0 0.0 0.00 0.17 0.00 92 1022.3
20260902123109 64 0 0.0 0.0 0.00 0.17 0.00 93 1022.4
20260902122524 64 0 0.0 0.0 0.00 0.17 0.00 94 1022.2
20260902122020 64 0 0.0 0.0 0.00 0.17 0.00 94 1022.2
20260902121547 64 0 0.0 0.0 0.00 0.17 0.00 94 1022.2
20260902121020 64 0 0.0 0.0 0.00 0.17 0.00 94 1022.0
20260902120521 63 0 0.0 0.0 0.00 0.17 0.00 95 1022.2
20260902120043 63 0 0.0 0.0 0.00 0.17 0.00 95 1022.4
20260902115524 63 0 0.0 0.0 0.00 0.19 0.00 95 1022.3
20260902115028 63 0 0.0 0.0 0.00 0.19 0.00 95 1022.4
20260902114546 63 0 0.0 0.0 0.00 0.19 0.00 95 1022.6
20260902114024 63 0 0.0 0.0 0.00 0.19 0.00 97 1022.5
20260902113524 62 0 0.0 0.0 0.00 0.19 0.00 97 1022.7
20260902113041 62 0 0.0 0.0 0.00 0.19 0.00 97 1022.5
20260902112522 62 0 0.0 0.0 0.00 0.19 0.00 97 1022.6
20260902112020 62 0 0.0 0.0 0.00 0.19 0.00 97 1022.6
20260902111546 62 0 0.0 0.0 0.00 0.19 0.00 97 1022.5
20260902111018 62 0 0.0 0.0 0.00 0.19 0.00 97 1022.6
20260902110525 62 0 0.0 0.0 0.00 0.19 0.00 97 1022.8
20260902110051 61 0 0.0 0.0 0.00 0.19 0.00 97 1022.8
20260902105524 61 0 0.0 0.0 0.00 0.40 0.00 97 1022.7
20260902105024 61 0 0.0 0.0 0.00 0.40 0.00 97 1022.6
20260902104544 61 0 0.0 0.0 0.00 0.40 0.00 97 1022.5
20260902104025 61 0 0.0 0.0 0.00 0.40 0.00 97 1022.4
20260902103523 61 0 0.0 0.0 0.00 0.40 0.00 97 1022.4
20260902103042 61 0 0.0 0.0 0.00 0.40 0.00 97 1022.2
20260902102523 61 0 0.0 0.0 0.00 0.40 0.00 97 1022.2
20260902102021 61 0 0.0 0.0 0.00 0.40 0.00 97 1022.2
20260902101551 61 0 0.0 0.0 0.00 0.40 0.00 97 1022.2
20260902101021 61 0 0.0 0.0 0.00 0.40 0.00 97 1022.2
20260902100519 61 0 0.0 0.0 0.00 0.40 0.00 97 1022.1
20260902100039 61 0 0.0 0.0 0.00 0.40 0.00 97 1022.1
20260902095522 61 0 0.0 0.0 0.00 0.40 0.00 97 1021.9
20260902095024 61 0 0.0 0.0 0.00 0.40 0.00 97 1021.9
20260902094540 61 0 0.0 0.0 0.00 0.40 0.00 97 1022.0
20260902094026 61 0 0.0 0.0 0.00 0.40 0.00 97 1022.0
20260902093521 61 0 0.0 0.0 0.00 0.40 0.00 97 1021.9
20260902093041 61 0 0.0 0.0 0.00 0.40 0.00 97 1021.8
20260902092518 61 0 0.0 0.0 0.00 0.40 0.00 97 1022.0
20260902092018 61 0 0.0 0.0 0.00 0.40 0.00 97 1021.9
20260902091558 61 0 0.0 0.0 0.00 0.40 0.00 97 1021.9
20260902091031 61 0 0.0 0.0 0.00 0.40 0.00 97 1021.8
20260902090519 61 0 0.0 0.0 0.00 0.40 0.00 97 1021.6
20260902090104 61 0 0.0 0.0 0.00 0.40 0.00 97 1021.8
20260902085522 61 0 0.0 0.0 0.00 0.40 0.00 97 1021.7
20260902085021 61 0 0.0 0.0 0.00 0.40 0.00 97 1021.8
20260902084548 61 0 0.0 0.0 0.00 0.40 0.00 97 1021.6
20260902084018 61 0 0.0 0.0 0.00 0.40 0.00 97 1021.7
20260902083523 61 0 0.0 0.0 0.00 0.40 0.00 97 1021.7
20260902083043 61 0 0.0 0.0 0.00 0.40 0.00 97 1021.7
20260902082523 62 0 0.0 0.0 0.00 0.40 0.00 97 1021.8
20260902082024 62 0 0.0 0.0 0.00 0.40 0.00 97 1021.8
20260902081545 62 0 0.0 0.0 0.00 0.40 0.00 97 1021.8
20260902081023 62 0 0.0 0.0 0.00 0.40 0.00 97 1021.6
20260902080523 62 0 0.0 0.0 0.00 0.40 0.00 97 1021.6
20260902080046 62 0 0.0 0.0 0.00 0.40 0.00 97 1021.6
20260902075520 62 0 0.0 0.0 0.00 0.40 0.00 97 1021.5
20260902075021 62 0 0.0 0.0 0.00 0.40 0.00 97 1021.6
20260902074541 62 0 0.0 0.0 0.00 0.40 0.00 97 1021.6
20260902074018 62 0 0.0 0.0 0.00 0.40 0.00 97 1021.5
20260902073525 62 0 0.0 0.0 0.00 0.40 0.00 97 1021.6
20260902073047 62 0 0.0 0.0 0.00 0.40 0.00 97 1021.7
20260902072527 62 0 0.0 0.0 0.00 0.40 0.00 97 1021.7
20260902072022 62 0 0.0 0.0 0.00 0.40 0.00 97 1021.7
20260902071548 62 0 0.0 0.0 0.00 0.40 0.00 97 1021.7
20260902071024 62 0 0.0 0.0 0.00 0.40 0.00 97 1021.7
20260902070522 62 0 0.0 0.0 0.00 0.40 0.00 97 1021.6
20260902070044 62 0 0.0 0.0 0.00 0.40 0.00 97 1021.6
20260902065519 62 0 0.0 0.0 0.00 0.40 0.00 97 1021.6
20260902065021 62 0 0.0 0.0 0.00 0.40 0.00 97 1021.6
20260902064544 63 0 0.0 0.0 0.00 0.40 0.00 97 1021.6
20260902064018 63 0 0.0 0.0 0.00 0.40 0.00 98 1021.6
20260902063527 63 0 0.0 0.0 0.00 0.40 0.00 97 1021.7
20260902063041 63 0 0.0 0.0 0.00 0.40 0.00 98 1021.9
20260902062521 63 0 0.0 0.0 0.00 0.40 0.00 98 1021.8
20260902062021 63 0 0.0 0.0 0.00 0.40 0.00 97 1021.8
20260902061548 63 0 0.0 0.0 0.00 0.40 0.00 97 1021.9
20260902061022 63 0 0.0 0.0 0.00 0.40 0.00 97 1021.8
20260902060522 63 0 0.0 0.0 0.00 0.40 0.00 97 1021.7
20260902060041 63 0 0.0 0.0 0.00 0.40 0.00 97 1021.6
20260902055526 63 0 0.0 0.0 0.00 0.40 0.00 98 1021.7
20260902055024 63 0 0.0 0.0 0.00 0.40 0.00 97 1021.6
20260902054545 63 0 0.0 0.0 0.00 0.40 0.00 98 1021.7
20260902054023 63 0 0.0 0.0 0.00 0.40 0.00 97 1021.6
20260902053522 63 0 0.0 0.0 0.00 0.40 0.00 97 1021.5
20260902053039 63 0 0.0 0.0 0.00 0.40 0.00 97 1021.4
20260902052523 63 0 0.0 0.0 0.00 0.40 0.00 98 1021.4
20260902052021 63 0 0.0 0.0 0.00 0.40 0.00 97 1021.4
20260902051539 63 0 0.0 0.0 0.00 0.40 0.00 97 1021.3
20260902051020 63 0 0.0 0.0 0.00 0.40 0.00 98 1021.3
20260902050519 63 0 0.0 0.0 0.00 0.40 0.00 98 1021.1
20260902050041 63 0 0.0 0.0 0.00 0.40 0.00 97 1021.1
20260902045527 63 0 0.0 0.0 0.00 0.40 0.00 98 1021.2
20260902045024 63 0 0.0 0.0 0.00 0.40 0.00 97 1021.2
20260902044542 62 0 0.0 0.0 0.00 0.40 0.00 97 1021.0
20260902044020 62 0 0.0 0.0 0.00 0.40 0.00 97 1020.9
20260902043520 62 0 0.0 0.0 0.00 0.40 0.00 97 1020.8
20260902043042 63 0 0.0 0.0 0.00 0.40 0.00 97 1020.9
20260902042519 63 0 0.0 0.0 0.00 0.40 0.00 97 1020.8
20260902042021 63 0 0.0 0.0 0.00 0.40 0.00 97 1020.6
20260902041552 63 0 0.0 0.0 0.00 0.40 0.00 97 1020.6
20260902041017 63 0 0.0 0.0 0.00 0.40 0.00 97 1020.5
20260902040524 63 0 0.0 0.0 0.00 0.40 0.00 97 1020.4
20260902040044 63 0 0.0 0.0 0.00 0.40 0.00 97 1020.3
20260902035528 63 0 0.0 0.0 0.00 0.40 0.40 97 1020.6
20260902035021 63 0 0.0 0.0 0.00 0.40 0.40 97 1020.5
20260902034542 63 0 0.0 0.0 0.00 0.40 0.40 97 1020.4
20260902034020 63 0 0.0 0.0 0.00 0.40 0.40 97 1020.3
20260902033521 63 0 0.0 0.0 0.00 0.40 0.40 97 1020.2
20260902033041 63 0 0.0 0.0 0.00 0.40 0.40 97 1020.2
20260902032519 63 0 0.0 0.0 0.00 0.40 0.40 97 1020.3
20260902032022 63 0 0.0 0.0 0.00 0.40 0.40 97 1020.3
20260902031546 63 0 0.0 0.0 0.00 0.40 0.40 97 1020.3
20260902031024 63 0 0.0 0.0 0.00 0.40 0.40 97 1020.4
20260902030524 63 0 0.0 0.0 0.00 0.40 0.40 97 1020.3
20260902030043 63 0 0.0 0.0 0.00 0.40 0.40 97 1020.3
20260902025521 64 0 0.0 0.0 0.00 0.40 0.40 97 1020.3
20260902025021 64 0 0.0 0.0 0.00 0.40 0.40 97 1020.3
20260902024540 64 0 0.0 0.0 0.00 0.40 0.40 97 1020.4
20260902024017 64 0 0.0 0.0 0.00 0.40 0.40 97 1020.3
20260902023519 64 0 0.0 0.0 0.00 0.40 0.40 97 1020.4
20260902023040 64 0 0.0 0.0 0.00 0.40 0.40 97 1020.3
20260902022524 64 0 0.0 0.0 0.00 0.40 0.40 97 1020.3
20260902022018 64 0 0.0 0.0 0.00 0.40 0.40 97 1020.3
20260902021539 64 0 0.0 0.0 0.00 0.40 0.40 97 1020.2
20260902021021 64 0 0.0 0.0 0.00 0.40 0.40 97 1020.2
20260902020523 64 0 0.0 0.0 0.00 0.40 0.40 97 1020.2
20260902020051 64 0 0.0 0.0 0.00 0.40 0.40 97 1020.2
20260902015520 64 0 0.0 0.0 0.00 0.40 0.40 97 1020.1
20260902015018 64 0 0.0 0.0 0.00 0.40 0.40 97 1020.1
20260902014541 64 0 0.0 0.0 0.00 0.40 0.40 97 1020.2
20260902014020 64 0 0.0 0.0 0.00 0.40 0.40 97 1020.1
20260902013523 64 0 0.0 0.0 0.00 0.40 0.40 97 1020.1
20260902013044 64 0 0.0 0.0 0.00 0.40 0.40 97 1020.0
20260902012526 64 0 0.0 0.0 0.00 0.40 0.40 97 1020.0
20260902012028 64 0 0.0 0.0 0.00 0.40 0.40 97 1020.0
20260902011539 64 0 0.0 0.0 0.00 0.40 0.40 97 1020.0
20260902011021 64 0 0.0 0.0 0.00 0.40 0.40 97 1020.0
20260902010521 64 0 0.0 0.0 0.00 0.40 0.40 97 1020.0
20260902010040 64 0 0.0 0.0 0.00 0.40 0.40 97 1020.2
20260902005523 64 0 0.0 0.0 0.00 0.40 0.40 97 1020.1
20260902005018 64 0 0.0 0.0 0.00 0.40 0.40 97 1020.1
20260902004541 64 0 0.0 0.0 0.00 0.40 0.40 97 1020.0
20260902004022 64 0 0.0 0.0 0.00 0.40 0.40 97 1019.9
20260902003524 64 0 0.0 0.0 0.00 0.40 0.40 97 1019.9
20260902003045 64 0 0.0 0.0 0.00 0.40 0.40 97 1020.0
20260902002520 65 0 0.0 0.0 0.00 0.40 0.40 97 1019.8
20260902002027 65 0 0.0 0.0 0.00 0.40 0.40 97 1019.7
20260902001541 65 0 0.0 0.0 0.00 0.40 0.40 97 1019.6
20260902001018 65 0 0.0 0.0 0.00 0.40 0.40 97 1019.4
20260902000517 65 0 0.0 0.0 0.00 0.40 0.40 97 1019.3
20260902000046 65 0 0.0 0.0 0.00 0.40 0.40 97 1019.3
20260901235518 65 0 0.0 0.0 0.00 0.40 0.40 97 1019.3
20260901235025 65 0 0.0 0.0 0.00 0.40 0.40 97 1019.3
20260901234547 65 0 0.0 0.0 0.00 0.40 0.40 96 1019.1
20260901234024 65 0 0.0 0.0 0.00 0.40 0.40 96 1019.2
20260901233529 65 0 0.0 0.0 0.00 0.40 0.40 96 1019.2
20260901233046 65 0 0.0 0.0 0.00 0.40 0.40 96 1019.1
20260901232525 65 0 0.0 0.0 0.00 0.40 0.40 96 1019.1
20260901232027 65 0 0.0 0.0 0.00 0.40 0.40 95 1019.2
20260901231544 65 0 0.0 0.0 0.00 0.40 0.40 96 1019.2
20260901231023 66 0 0.0 0.0 0.00 0.40 0.40 96 1019.1
20260901230526 66 0 0.0 0.0 0.00 0.40 0.40 95 1019.1
20260901230052 66 0 0.0 0.0 0.00 0.40 0.40 95 1019.2
20260901225524 66 0 0.0 0.0 0.00 0.40 0.40 95 1019.1
20260901225024 66 0 0.0 0.0 0.00 0.40 0.40 95 1019.2
20260901224542 66 0 0.0 0.0 0.00 0.40 0.40 94 1019.1
20260901224021 66 0 0.0 0.0 0.00 0.40 0.40 95 1019.2
20260901223521 66 0 0.0 0.0 0.00 0.40 0.40 94 1019.2
20260901223103 66 0 0.0 0.0 0.00 0.40 0.40 94 1019.2